This is the latest recevied weather packets stored in our database for station/object IR9AK-10. If no packets are shown the sender has not sent any weather packets the latest 10 day(s).
| Time | Temp. | Humidity | Pressure | Rain* | Wind** | Luminosity | Snow |
|---|---|---|---|---|---|---|---|
| 1777437548 | 18.89° C | 48% | 1059.7 hPa | - | - | - | - |
| 1777436949 | 18.33° C | 48% | 1059.7 hPa | - | - | - | - |
| 1777436350 | 18.33° C | 49% | 1059.6 hPa | - | - | - | - |
| 1777435751 | 18.33° C | 48% | 1059.5 hPa | - | - | - | - |
| 1777435153 | 18.33° C | 48% | 1059.4 hPa | - | - | - | - |
| 1777434554 | 18.33° C | 48% | 1059.4 hPa | - | - | - | - |
| 1777433954 | 17.78° C | 50% | 1059.3 hPa | - | - | - | - |
| 1777433355 | 17.78° C | 50% | 1059.4 hPa | - | - | - | - |
| 1777432755 | 17.78° C | 51% | 1059.4 hPa | - | - | - | - |
| 1777432156 | 17.78° C | 51% | 1059.5 hPa | - | - | - | - |
| 1777431557 | 17.78° C | 52% | 1059.6 hPa | - | - | - | - |
| 1777430969 | 18.33° C | 49% | 1059.6 hPa | - | - | - | - |
| 1777430957 | 18.33° C | 49% | 1059.6 hPa | - | - | - | - |
| 1777430358 | 18.33° C | 49% | 1059.6 hPa | - | - | - | - |
| 1777429758 | 18.33° C | 50% | 1059.6 hPa | - | - | - | - |
| 1777429159 | 18.33° C | 50% | 1059.6 hPa | - | - | - | - |
| 1777428560 | 18.33° C | 51% | 1059.9 hPa | - | - | - | - |
| 1777427960 | 18.33° C | 51% | 1059.9 hPa | - | - | - | - |
| 1777427362 | 18.33° C | 51% | 1059.8 hPa | - | - | - | - |
| 1777426763 | 18.33° C | 51% | 1059.7 hPa | - | - | - | - |
| 1777426165 | 17.78° C | 52% | 1059.7 hPa | - | - | - | - |
| 1777425566 | 17.78° C | 55% | 1059.7 hPa | - | - | - | - |
| 1777424967 | 17.78° C | 55% | 1059.7 hPa | - | - | - | - |
| 1777424369 | 17.78° C | 55% | 1059.8 hPa | - | - | - | - |
| 1777423770 | 17.78° C | 56% | 1059.8 hPa | - | - | - | - |
* Rain since midnight (hover to see other rain measurements)
** Current wind speed in m/s (hover to see current wind gust speed)